User: anonymous   Login
Location: Lawrence Hall of Science
(37.8785°N, 122.2415°W)
Time: 02:28:40
(UTC-07:00)
Language:

Cosmos 1461 - Orbit

View from above orbital plane
View from above orbital plane
View from above satellite
View from above satellite

Ground track
Ground track

The orbit data is extracted from the following two-line orbital elements,

1 14064U 83044A   17117.43458544 +.00001189 +00000-0 +11962-3 0  9999
2 14064 065.0011 081.8384 0086291 060.0735 300.8915 14.93567993715778
Epoch (UTC): 27 April 2017 10:25:48
Eccentricity: 0.0086291
inclination: 65.0011°
perigee height: 527 km
apogee height: 647 km
right ascension of ascending node: 81.8384°
argument of perigee: 60.0735°
revolutions per day: 14.93567993
mean anomaly at epoch: 300.8915°
orbit number at epoch: 71577

The dashed part of the orbit path shows where the satellite is in the earth's shadow,  

DLR